sat.trackr.live / text

‹ back to catalog

STARLINK-6354

NORAD 56784 · 2023-078T

PAYLOAD ACTIVE UNKNOWN

§ Identity

Operator
Country
US
Launch date
2023-05-31
Launch site
AFWTR
Launch vehicle
Mass (kg)
RCS (m²)

Purposes: comms

External: N2YO · Heavens-Above · Gunter

§ Orbital elements

Epoch: 2026-05-25T05:09:34.214112Z

Period
96.11 min
Inclination
69.9986°
Eccentricity
0.0003676
Mean motion
14.98330478 rev/d
Perigee alt
569.5 km
Apogee alt
574.6 km
Semi-major
6,950.2 km
B*
-8.8103e-6
RAAN
131.6148°
Arg perigee
266.2686°
Mean anomaly
93.8052°
Rev number
16,463

§ Raw data

STARLINK-63541 56784U 23078T   26145.21497933 -.00000198  00000+0 -88103-5 0  99902 56784  69.9986 131.6148 0003676 266.2686  93.8052 14.98330478164635

JSON: /api/v1/satellites/56784 · /tle

For live sub-satellite position, see the globe view (requires WebGL).

§ Visibility from observer

Set your observer location to see the next 7 days of passes ≥ 10°. The values pass through the URL so the page stays shareable.

No JS? Fill the form by hand. The geolocation button needs JavaScript.